Orbital Elements at Epoch 2459200.5 (2020-Dec-17.0) TDB
Reference: JPL 23 (heliocentric ecliptic J2000)
Element | Value | Uncertainty (1-sigma) | Units |
e | .1847922293028594 | 4.8192e-08 | |
a | 2.663294036216939 | 1.7803e-08 | au |
q | 2.1711379939754 | 1.23e-07 | au |
i | 13.30249077526536 | 4.4577e-06 | deg |
node | 120.0600168587785 | 2.3757e-05 | deg |
peri | 173.9535362429642 | 2.9796e-05 | deg |
M | 111.6219940465431 | 2.2288e-05 | deg |
tp | 2458708.262861300861 (2019-Aug-12.76286130) | 9.4852e-05 | TDB |
period | 1587.548864767642 4.35 | 1.5918e-05 4.358e-08 | d yr |
n | .2267646735098706 | 2.2737e-09 | deg/d |
Q | 3.155450078458478 | 2.1093e-08 | au |
|
| | Orbit Determination Parameters
Additional Information
|